STARLINK-4396, 53637

Orbit data source: Space-Track

STARLINK-4396, 53637 is a payload satellite owned by SpaceX/Seattle (US) in LEO that was launched on Sun, 28 Aug 2022 UTC via an FALCON 9 launch vehicle from the Air Force Eastern Test Range (AFETR). Payload-class satellites include a variety of spacecraft equipped with specific instruments for various scientific and technological missions. These include communications satellites like Starlink; space stations such as the ISS; scientific satellites like the Hubble; Earth observation satellites from companies like Planet Labs, Umbra, and HawkEye 360; GPS; miniature CubeSats for education and research; and military/defense satellites.

Loading next visibility...
Identifier
53637, 2022-104BB
Orbit
LEO
Country
Flag of USUS
Related business
Manufacturer
SpaceX/Seattle
Mission
Operational Commercial Communications
Bus & Motor
STARLINK, Unknown motor
Mass
300 kg wet, ~290 kg dry
Launch date (UTC)
2022-08-28 (3 years ago)
Launch vehicle
FALCON 9
Launch site
Air Force Eastern Test Range (AFETR)
Object type
Payload
Rocket body
Debris
Shape & HBR
Box + 1 Pan, 10.1 m
Radar Cross Section
13.562 m², Large (>1 m²)

Expand to show TLE details & history
Last TLE update: 21 hours ago

TLE from 21 hours ago
0 STARLINK-4396
1 53637U 22104BB  25347.45223215  .00001726  00000-0  12649-3 0  9999
2 53637  53.2170 251.4421 0001293  90.5413 269.5727 15.08845139183206
Epoch: 2025-12-13T10:51Z
TLE epoch observation values (Epoch: 2025-12-13T10:51:12.857Z)
Latitude
-0.00006°
Longitude
6.25918°
Altitude
540.632 km
Speed
7.593 km/s
True Right ascension
16h 45m 46s
True Declination
0° 00' 00"
Sunlit
Object was in daylight at epoch
Visualization orbit readout
Latitude
Unknown
Longitude
Unknown
Altitude
Unknown
Speed
Unknown
Apparent Right ascension
Unknown
Apparent Declination
Unknown
Sunlit
N/A
Visualization observer readout
Local Sidereal Time
06:28:22
Azimuth
Unknown
Elevation
Unknown
Doppler factor
Unknown
Orbital elements
Apogee altitude
540.867 km
Perigee altitude
539.078 km
Semi-major axis
6,918.11 km
Eccentricity
0.00013
Inclination
53.217°
RAAN
251.4421°
Arg. of periapsis
90.5413°
True anomaly
269.55788°
Mean anomaly
269.5727°
Eccentric anomaly
269.56529°
Mean motion
3.77192 °/min
Orbital period
95.44 mins
BSTAR
0.00012649
Loading maneuver chart data...
Computing Atmospheric mass density...
Loading historical data...
Loading historical data...
Loading historical data...
Loading historical data...
Loading historical data...
Loading historical data...
Loading historical data...

Documentation

Showing up to 5 results
|